| time (UTC) | temp F | wind direction | speed knots | gust knots | rain 1hr in | rain 24hr in | rain mn in | humidity % | barometer mb |
| 20260510095026 | 62 | 89 | 0.0 | 0.0 | 0.00 | 0.00 | 0.00 | 99 | 1014.7 |
| 20260510094521 | 62 | 89 | 0.0 | 0.9 | 0.00 | 0.00 | 0.00 | 99 | 1014.9 |
| 20260510094017 | 62 | 37 | 0.0 | 0.0 | 0.00 | 0.00 | 0.00 | 99 | 1015.0 |
| 20260510093513 | 62 | 50 | 0.0 | 0.9 | 0.00 | 0.00 | 0.00 | 99 | 1014.8 |
| 20260510093010 | 62 | 42 | 0.0 | 1.7 | 0.00 | 0.00 | 0.00 | 99 | 1014.9 |
| 20260510092507 | 62 | 24 | 0.9 | 1.7 | 0.00 | 0.00 | 0.00 | 99 | 1014.9 |
| 20260510092006 | 62 | 0 | 0.0 | 0.9 | 0.00 | 0.00 | 0.00 | 99 | 1015.2 |
| 20260510091503 | 61 | 50 | 0.0 | 0.0 | 0.00 | 0.00 | 0.00 | 99 | 1015.1 |
| 20260510090959 | 61 | 66 | 0.0 | 0.9 | 0.00 | 0.00 | 0.00 | 99 | 1014.9 |
| 20260510090457 | 61 | 32 | 0.0 | 0.9 | 0.00 | 0.00 | 0.00 | 99 | 1014.6 |
| 20260510085952 | 62 | 63 | 0.0 | 1.7 | 0.00 | 0.00 | 0.00 | 99 | 1014.2 |
| 20260510085447 | 62 | 310 | 0.9 | 1.7 | 0.00 | 0.00 | 0.00 | 99 | 1014.6 |
| 20260510084943 | 62 | 317 | 0.0 | 0.9 | 0.00 | 0.00 | 0.00 | 99 | 1014.3 |
| 20260510084440 | 62 | 327 | 0.0 | 0.0 | 0.00 | 0.00 | 0.00 | 99 | 1014.3 |
| 20260510083937 | 62 | 319 | 0.9 | 1.7 | 0.00 | 0.00 | 0.00 | 99 | 1014.2 |
| 20260510083434 | 62 | 28 | 0.0 | 0.9 | 0.00 | 0.00 | 0.00 | 99 | 1014.0 |
| 20260510082929 | 62 | 22 | 0.0 | 0.0 | 0.00 | 0.00 | 0.00 | 99 | 1013.9 |
| 20260510082427 | 62 | 22 | 0.0 | 0.0 | 0.00 | 0.00 | 0.00 | 99 | 1014.0 |
| 20260510081926 | 62 | 47 | 0.0 | 0.9 | 0.00 | 0.00 | 0.00 | 99 | 1013.9 |
| 20260510081422 | 62 | 50 | 0.0 | 0.0 | 0.00 | 0.00 | 0.00 | 99 | 1013.8 |
| 20260510080918 | 62 | 103 | 0.0 | 0.9 | 0.00 | 0.00 | 0.00 | 99 | 1014.0 |
| 20260510080417 | 62 | 62 | 0.9 | 1.7 | 0.00 | 0.00 | 0.00 | 99 | 1013.8 |
| 20260510075914 | 62 | 32 | 0.0 | 0.9 | 0.00 | 0.00 | 0.00 | 99 | 1013.7 |
| 20260510075412 | 62 | 37 | 0.0 | 0.0 | 0.00 | 0.00 | 0.00 | 99 | 1013.7 |
| 20260510074909 | 62 | 38 | 0.0 | 0.9 | 0.00 | 0.00 | 0.00 | 99 | 1013.6 |
| 20260510074406 | 62 | 89 | 0.0 | 0.9 | 0.00 | 0.00 | 0.00 | 99 | 1013.4 |
| 20260510073903 | 62 | 49 | 0.0 | 1.7 | 0.00 | 0.00 | 0.00 | 99 | 1013.8 |
| 20260510073358 | 63 | 39 | 0.9 | 1.7 | 0.00 | 0.00 | 0.00 | 99 | 1013.7 |
| 20260510072854 | 62 | 89 | 0.9 | 0.9 | 0.00 | 0.00 | 0.00 | 99 | 1013.6 |
| 20260510072351 | 62 | 32 | 0.0 | 0.0 | 0.00 | 0.00 | 0.00 | 99 | 1013.6 |
| 20260510071847 | 63 | 52 | 0.9 | 0.9 | 0.00 | 0.00 | 0.00 | 99 | 1013.7 |
| 20260510071343 | 63 | 44 | 0.0 | 1.7 | 0.00 | 0.00 | 0.00 | 99 | 1013.8 |
| 20260510070842 | 63 | 63 | 0.0 | 1.7 | 0.00 | 0.00 | 0.00 | 99 | 1014.0 |
| 20260510070339 | 63 | 61 | 0.9 | 2.6 | 0.00 | 0.00 | 0.00 | 99 | 1013.9 |
| 20260510065839 | 63 | 73 | 0.9 | 1.7 | 0.00 | 0.00 | 0.00 | 99 | 1013.9 |
| 20260510065336 | 63 | 52 | 0.9 | 1.7 | 0.00 | 0.00 | 0.00 | 99 | 1013.9 |
| 20260510064832 | 63 | 64 | 1.7 | 1.7 | 0.00 | 0.00 | 0.00 | 99 | 1013.7 |
| 20260510064331 | 63 | 76 | 0.0 | 0.9 | 0.00 | 0.00 | 0.00 | 99 | 1013.8 |
| 20260510063827 | 64 | 70 | 0.0 | 0.9 | 0.00 | 0.00 | 0.00 | 99 | 1013.8 |
| 20260510063323 | 64 | 80 | 0.0 | 1.7 | 0.00 | 0.00 | 0.00 | 99 | 1014.0 |
| 20260510062820 | 64 | 66 | 0.9 | 1.7 | 0.00 | 0.00 | 0.00 | 99 | 1014.0 |
| 20260510062315 | 63 | 51 | 0.9 | 1.7 | 0.00 | 0.00 | 0.00 | 99 | 1014.3 |
| 20260510061811 | 64 | 322 | 0.0 | 0.0 | 0.00 | 0.00 | 0.00 | 99 | 1014.2 |
| 20260510061308 | 64 | 322 | 0.0 | 0.9 | 0.00 | 0.00 | 0.00 | 99 | 1014.0 |
| 20260510060804 | 64 | 55 | 0.0 | 0.9 | 0.00 | 0.00 | 0.00 | 99 | 1014.0 |
| 20260510060301 | 64 | 50 | 0.0 | 0.0 | 0.00 | 0.00 | 0.00 | 99 | 1013.9 |
| 20260510055758 | 64 | 76 | 0.0 | 0.9 | 0.00 | 0.00 | 0.00 | 99 | 1013.8 |
| 20260510055256 | 64 | 76 | 0.0 | 0.9 | 0.00 | 0.00 | 0.00 | 99 | 1013.7 |
| 20260510054756 | 64 | 66 | 0.0 | 0.9 | 0.00 | 0.00 | 0.00 | 99 | 1013.8 |
| 20260510054252 | 64 | 17 | 0.0 | 0.9 | 0.00 | 0.00 | 0.00 | 99 | 1013.8 |
| 20260510053751 | 64 | 1 | 0.0 | 0.9 | 0.00 | 0.00 | 0.00 | 99 | 1013.8 |
| 20260510053242 | 64 | 22 | 0.0 | 0.0 | 0.00 | 0.00 | 0.00 | 98 | 1013.6 |
| 20260510052738 | 64 | 50 | 0.0 | 0.9 | 0.00 | 0.00 | 0.00 | 98 | 1013.4 |
| 20260510052234 | 64 | 13 | 0.0 | 0.0 | 0.00 | 0.00 | 0.00 | 98 | 1013.6 |
| 20260510051730 | 65 | 13 | 0.0 | 0.9 | 0.00 | 0.00 | 0.00 | 98 | 1013.5 |
| 20260510051226 | 65 | 299 | 0.0 | 0.9 | 0.00 | 0.00 | 0.00 | 98 | 1013.3 |
| 20260510050724 | 65 | 44 | 0.0 | 0.0 | 0.00 | 0.00 | 0.00 | 97 | 1013.4 |
| 20260510050221 | 65 | 71 | 0.0 | 1.7 | 0.00 | 0.00 | 0.00 | 96 | 1013.3 |
| 20260510045718 | 66 | 87 | 0.9 | 1.7 | 0.00 | 0.00 | 0.00 | 96 | 1013.5 |
| 20260510045214 | 66 | 75 | 1.7 | 1.7 | 0.00 | 0.00 | 0.00 | 96 | 1013.5 |
| 20260510044710 | 66 | 89 | 0.0 | 0.0 | 0.00 | 0.00 | 0.00 | 96 | 1013.3 |
| 20260510044209 | 66 | 89 | 0.0 | 1.7 | 0.00 | 0.00 | 0.00 | 96 | 1013.1 |
| 20260510043703 | 66 | 63 | 0.9 | 1.7 | 0.00 | 0.00 | 0.00 | 96 | 1013.3 |
| 20260510043200 | 66 | 50 | 0.0 | 0.9 | 0.00 | 0.00 | 0.00 | 95 | 1013.3 |
| 20260510042658 | 66 | 44 | 0.0 | 0.9 | 0.00 | 0.00 | 0.00 | 95 | 1013.3 |
| 20260510042154 | 66 | 40 | 0.0 | 1.7 | 0.00 | 0.00 | 0.00 | 95 | 1013.2 |
| 20260510041651 | 67 | 25 | 0.9 | 1.7 | 0.00 | 0.00 | 0.00 | 94 | 1013.2 |
| 20260510041148 | 67 | 75 | 0.9 | 1.7 | 0.00 | 0.00 | 0.00 | 94 | 1012.9 |
| 20260510040645 | 67 | 79 | 0.9 | 1.7 | 0.00 | 0.00 | 0.00 | 93 | 1013.2 |
| 20260510040142 | 67 | 64 | 0.0 | 0.9 | 0.00 | 0.00 | 0.00 | 93 | 1013.3 |
| 20260510035637 | 67 | 82 | 0.0 | 1.7 | 0.00 | 0.00 | 0.00 | 93 | 1013.3 |
| 20260510035133 | 67 | 50 | 0.0 | 0.9 | 0.00 | 0.00 | 0.00 | 92 | 1013.4 |
| 20260510034630 | 68 | 22 | 0.0 | 0.9 | 0.00 | 0.00 | 0.00 | 92 | 1013.3 |
| 20260510034127 | 68 | 66 | 0.0 | 0.9 | 0.00 | 0.00 | 0.00 | 91 | 1013.3 |
| 20260510033623 | 68 | 113 | 0.0 | 0.9 | 0.00 | 0.00 | 0.00 | 91 | 1013.2 |
| 20260510033121 | 69 | 40 | 0.0 | 0.9 | 0.00 | 0.00 | 0.00 | 90 | 1012.9 |
| 20260510032617 | 69 | 66 | 0.0 | 0.9 | 0.00 | 0.00 | 0.00 | 90 | 1013.1 |
| 20260510032113 | 69 | 68 | 0.9 | 1.7 | 0.00 | 0.00 | 0.00 | 90 | 1013.0 |
| 20260510031608 | 69 | 103 | 0.0 | 1.7 | 0.00 | 0.00 | 0.00 | 89 | 1013.1 |
| 20260510031105 | 69 | 35 | 0.9 | 1.7 | 0.00 | 0.00 | 0.00 | 89 | 1012.9 |
| 20260510030600 | 69 | 84 | 0.9 | 1.7 | 0.00 | 0.00 | 0.00 | 89 | 1012.8 |
| 20260510030057 | 69 | 89 | 0.0 | 0.0 | 0.00 | 0.00 | 0.00 | 88 | 1012.8 |
| 20260510025548 | 70 | 53 | 0.0 | 1.7 | 0.00 | 0.00 | 0.00 | 88 | 1012.7 |
| 20260510025046 | 70 | 89 | 0.0 | 0.0 | 0.00 | 0.00 | 0.00 | 87 | 1012.6 |
| 20260510024542 | 70 | 85 | 0.9 | 1.7 | 0.00 | 0.00 | 0.00 | 87 | 1012.8 |
| 20260510024039 | 70 | 89 | 0.0 | 0.9 | 0.00 | 0.00 | 0.00 | 86 | 1012.7 |
| 20260510023535 | 70 | 129 | 0.0 | 0.9 | 0.00 | 0.00 | 0.00 | 86 | 1012.4 |
| 20260510023033 | 71 | 37 | 0.0 | 0.9 | 0.00 | 0.00 | 0.00 | 85 | 1012.4 |
| 20260510022532 | 71 | 62 | 0.0 | 1.7 | 0.00 | 0.00 | 0.00 | 84 | 1012.2 |
| 20260510022031 | 71 | 89 | 0.0 | 0.9 | 0.00 | 0.00 | 0.00 | 84 | 1012.1 |
| 20260510021528 | 72 | 62 | 0.0 | 0.0 | 0.00 | 0.00 | 0.00 | 83 | 1012.3 |
| 20260510021027 | 72 | 62 | 0.0 | 0.9 | 0.00 | 0.00 | 0.00 | 82 | 1012.0 |
| 20260510020521 | 72 | 110 | 0.0 | 2.6 | 0.00 | 0.00 | 0.00 | 82 | 1012.4 |
| 20260510020017 | 72 | 15 | 0.0 | 0.9 | 0.00 | 0.00 | 0.00 | 82 | 1012.2 |
| 20260510015512 | 72 | 147 | 0.0 | 2.6 | 0.00 | 0.00 | 0.00 | 82 | 1012.1 |
| 20260510015009 | 73 | 116 | 0.0 | 1.7 | 0.00 | 0.00 | 0.00 | 82 | 1011.9 |
| 20260510014506 | 73 | 17 | 0.0 | 1.7 | 0.00 | 0.00 | 0.00 | 82 | 1012.0 |
| 20260510014003 | 73 | 89 | 0.0 | 1.7 | 0.00 | 0.00 | 0.00 | 81 | 1011.9 |
| 20260510013456 | 73 | 37 | 0.0 | 0.0 | 0.00 | 0.00 | 0.00 | 81 | 1012.0 |
| 20260510012953 | 73 | 164 | 0.0 | 0.9 | 0.00 | 0.00 | 0.00 | 80 | 1011.7 |
| 20260510012448 | 73 | 66 | 0.0 | 1.7 | 0.00 | 0.00 | 0.00 | 80 | 1011.9 |
| 20260510011943 | 74 | 51 | 0.0 | 2.6 | 0.00 | 0.00 | 0.00 | 79 | 1011.6 |
| 20260510011437 | 74 | 122 | 0.0 | 1.7 | 0.00 | 0.00 | 0.00 | 78 | 1011.5 |
| 20260510010933 | 74 | 25 | 0.0 | 1.7 | 0.00 | 0.00 | 0.00 | 78 | 1011.6 |
| 20260510010426 | 75 | 25 | 0.0 | 0.9 | 0.00 | 0.00 | 0.00 | 77 | 1011.4 |
| 20260510005922 | 75 | 141 | 0.0 | 0.9 | 0.00 | 0.00 | 0.00 | 76 | 1011.2 |
| 20260510005418 | 75 | 104 | 0.0 | 1.7 | 0.00 | 0.00 | 0.00 | 75 | 1011.5 |
| 20260510004916 | 75 | 103 | 0.0 | 1.7 | 0.00 | 0.00 | 0.00 | 75 | 1011.5 |
| 20260510004413 | 76 | 89 | 0.0 | 1.7 | 0.00 | 0.00 | 0.00 | 74 | 1011.0 |
| 20260510003911 | 77 | 166 | 0.0 | 1.7 | 0.00 | 0.00 | 0.00 | 73 | 1011.0 |
| 20260510003408 | 77 | 15 | 0.0 | 0.9 | 0.00 | 0.00 | 0.00 | 72 | 1011.0 |
| 20260510002907 | 78 | 0 | 0.0 | 0.9 | 0.00 | 0.00 | 0.00 | 71 | 1011.0 |
| 20260510002404 | 77 | 139 | 0.0 | 1.7 | 0.00 | 0.00 | 0.00 | 72 | 1010.9 |
| 20260510001901 | 77 | 113 | 0.0 | 1.7 | 0.00 | 0.00 | 0.00 | 71 | 1011.1 |
| 20260510001358 | 77 | 175 | 0.0 | 0.9 | 0.00 | 0.00 | 0.00 | 70 | 1010.7 |
| 20260510000855 | 78 | 62 | 0.0 | 2.6 | 0.00 | 0.00 | 0.00 | 70 | 1010.7 |
| 20260510000352 | 78 | 103 | 0.9 | 2.6 | 0.00 | 0.00 | 0.00 | 69 | 1010.8 |
| 20260509235848 | 78 | 37 | 0.0 | 2.6 | 0.00 | 0.00 | 0.00 | 69 | 1010.8 |
| 20260509235345 | 78 | 14 | 1.7 | 2.6 | 0.00 | 0.00 | 0.00 | 69 | 1010.7 |
| 20260509234841 | 79 | 351 | 0.0 | 2.6 | 0.00 | 0.00 | 0.00 | 69 | 1010.6 |
| 20260509234338 | 79 | 11 | 1.7 | 3.5 | 0.00 | 0.00 | 0.00 | 67 | 1010.6 |
| 20260509233836 | 80 | 34 | 1.7 | 2.6 | 0.00 | 0.00 | 0.00 | 66 | 1010.6 |
| 20260509233334 | 81 | 176 | 0.0 | 2.6 | 0.00 | 0.00 | 0.00 | 64 | 1010.6 |
| 20260509232829 | 81 | 46 | 0.0 | 3.5 | 0.00 | 0.00 | 0.00 | 63 | 1010.5 |
| 20260509232326 | 81 | 171 | 0.0 | 2.6 | 0.00 | 0.00 | 0.00 | 64 | 1010.5 |
| 20260509231822 | 80 | 156 | 0.9 | 5.2 | 0.00 | 0.00 | 0.00 | 64 | 1010.4 |
| 20260509231319 | 80 | 99 | 1.7 | 3.5 | 0.00 | 0.00 | 0.00 | 65 | 1010.4 |
| 20260509230817 | 80 | 66 | 0.0 | 1.7 | 0.00 | 0.00 | 0.00 | 64 | 1010.4 |
| 20260509230314 | 80 | 170 | 0.9 | 6.1 | 0.00 | 0.00 | 0.00 | 64 | 1010.3 |
| 20260509225809 | 81 | 142 | 1.7 | 4.3 | 0.00 | 0.00 | 0.00 | 62 | 1010.4 |
| 20260509225306 | 82 | 154 | 0.0 | 4.3 | 0.00 | 0.00 | 0.00 | 62 | 1010.3 |
| 20260509224802 | 82 | 359 | 1.7 | 6.1 | 0.00 | 0.00 | 0.00 | 61 | 1010.4 |
| 20260509224258 | 83 | 146 | 3.5 | 4.3 | 0.00 | 0.00 | 0.00 | 60 | 1010.4 |
| 20260509223755 | 82 | 98 | 1.7 | 4.3 | 0.00 | 0.00 | 0.00 | 63 | 1010.0 |
| 20260509223252 | 81 | 153 | 3.5 | 7.0 | 0.00 | 0.00 | 0.00 | 65 | 1010.0 |
| 20260509222749 | 82 | 141 | 2.6 | 4.3 | 0.00 | 0.00 | 0.00 | 64 | 1010.3 |
| 20260509222244 | 81 | 137 | 6.1 | 7.8 | 0.00 | 0.00 | 0.00 | 63 | 1010.2 |
| 20260509221740 | 82 | 191 | 2.6 | 6.1 | 0.00 | 0.00 | 0.00 | 62 | 1010.1 |
| 20260509221237 | 81 | 155 | 2.6 | 7.0 | 0.00 | 0.00 | 0.00 | 62 | 1010.0 |
| 20260509220732 | 82 | 316 | 1.7 | 7.8 | 0.00 | 0.00 | 0.00 | 63 | 1010.2 |
| 20260509220229 | 82 | 128 | 1.7 | 4.3 | 0.00 | 0.00 | 0.00 | 63 | 1010.1 |
| 20260509215725 | 82 | 176 | 2.6 | 5.2 | 0.00 | 0.00 | 0.00 | 64 | 1010.2 |
| 20260509215221 | 82 | 154 | 2.6 | 4.3 | 0.00 | 0.00 | 0.00 | 62 | 1009.9 |
| 20260509214719 | 82 | 146 | 3.5 | 4.3 | 0.00 | 0.00 | 0.00 | 62 | 1010.1 |
| 20260509214215 | 82 | 116 | 0.0 | 2.6 | 0.00 | 0.00 | 0.00 | 61 | 1010.1 |
| 20260509213713 | 83 | 159 | 2.6 | 3.5 | 0.00 | 0.00 | 0.00 | 61 | 1010.0 |
| 20260509213208 | 83 | 155 | 0.9 | 6.1 | 0.00 | 0.00 | 0.00 | 61 | 1009.9 |
| 20260509212706 | 83 | 180 | 2.6 | 4.3 | 0.00 | 0.00 | 0.00 | 59 | 1010.1 |
| 20260509212202 | 83 | 224 | 0.0 | 3.5 | 0.00 | 0.00 | 0.00 | 62 | 1010.1 |
| 20260509211658 | 82 | 156 | 2.6 | 6.1 | 0.00 | 0.00 | 0.00 | 64 | 1010.3 |
| 20260509211155 | 81 | 208 | 1.7 | 4.3 | 0.00 | 0.00 | 0.00 | 65 | 1010.1 |
| 20260509210652 | 82 | 169 | 2.6 | 5.2 | 0.00 | 0.00 | 0.00 | 63 | 1010.1 |
| 20260509210144 | 83 | 157 | 2.6 | 5.2 | 0.00 | 0.00 | 0.00 | 61 | 1010.1 |
| 20260509205639 | 83 | 165 | 2.6 | 4.3 | 0.00 | 0.00 | 0.00 | 61 | 1010.3 |
| 20260509205138 | 84 | 299 | 0.0 | 2.6 | 0.00 | 0.00 | 0.00 | 57 | 1010.4 |
| 20260509204635 | 84 | 254 | 0.0 | 6.1 | 0.00 | 0.00 | 0.00 | 60 | 1010.3 |
| 20260509204131 | 84 | 172 | 1.7 | 2.6 | 0.00 | 0.00 | 0.00 | 59 | 1010.4 |
| 20260509203627 | 82 | 190 | 1.7 | 4.3 | 0.00 | 0.00 | 0.00 | 59 | 1010.2 |
| 20260509203120 | 84 | 208 | 1.7 | 3.5 | 0.00 | 0.00 | 0.00 | 58 | 1010.7 |
| 20260509202619 | 83 | 168 | 0.9 | 4.3 | 0.00 | 0.00 | 0.00 | 61 | 1010.5 |
| 20260509202115 | 84 | 160 | 3.5 | 4.3 | 0.00 | 0.00 | 0.00 | 57 | 1010.6 |
| 20260509201610 | 84 | 252 | 0.9 | 4.3 | 0.00 | 0.00 | 0.00 | 63 | 1010.8 |
| 20260509201109 | 84 | 130 | 0.0 | 3.5 | 0.00 | 0.00 | 0.00 | 59 | 1011.1 |
| 20260509200609 | 84 | 176 | 1.7 | 4.3 | 0.00 | 0.00 | 0.00 | 61 | 1011.0 |
| 20260509200105 | 84 | 154 | 0.0 | 4.3 | 0.00 | 0.00 | 0.00 | 58 | 1011.1 |
| 20260509195600 | 83 | 15 | 2.6 | 3.5 | 0.00 | 0.00 | 0.00 | 58 | 1011.4 |
| 20260509195050 | 81 | 164 | 2.6 | 4.3 | 0.00 | 0.00 | 0.00 | 60 | 1011.4 |
| 20260509194549 | 82 | 193 | 4.3 | 6.1 | 0.00 | 0.00 | 0.00 | 59 | 1011.4 |
| 20260509194047 | 84 | 85 | 0.9 | 2.6 | 0.00 | 0.00 | 0.00 | 55 | 1011.1 |
| 20260509193542 | 84 | 159 | 0.0 | 2.6 | 0.00 | 0.00 | 0.00 | 56 | 1011.1 |
| 20260509193039 | 85 | 216 | 0.9 | 3.5 | 0.00 | 0.00 | 0.00 | 55 | 1011.2 |
| 20260509192536 | 82 | 255 | 1.7 | 4.3 | 0.00 | 0.00 | 0.00 | 56 | 1011.4 |
| 20260509192030 | 82 | 238 | 2.6 | 3.5 | 0.00 | 0.00 | 0.00 | 57 | 1011.5 |
| 20260509191525 | 82 | 330 | 1.7 | 3.5 | 0.00 | 0.00 | 0.00 | 61 | 1011.4 |
| 20260509191021 | 81 | 65 | 2.6 | 3.5 | 0.00 | 0.00 | 0.00 | 59 | 1011.6 |
| 20260509190518 | 81 | 178 | 0.0 | 3.5 | 0.00 | 0.00 | 0.00 | 60 | 1011.5 |
| 20260509190017 | 80 | 50 | 0.0 | 2.6 | 0.00 | 0.00 | 0.00 | 64 | 1011.4 |
| 20260509185513 | 79 | 180 | 0.0 | 2.6 | 0.00 | 0.00 | 0.00 | 61 | 1011.6 |
| 20260509185009 | 80 | 212 | 2.6 | 3.5 | 0.00 | 0.00 | 0.00 | 61 | 1011.5 |
| 20260509184508 | 81 | 27 | 1.7 | 2.6 | 0.00 | 0.00 | 0.00 | 61 | 1011.4 |
| 20260509184004 | 81 | 134 | 2.6 | 3.5 | 0.00 | 0.00 | 0.00 | 60 | 1011.5 |
| 20260509183500 | 83 | 102 | 0.9 | 4.3 | 0.00 | 0.00 | 0.00 | 60 | 1011.6 |
| 20260509182955 | 82 | 315 | 0.0 | 2.6 | 0.00 | 0.00 | 0.00 | 62 | 1011.8 |
| 20260509182451 | 81 | 114 | 0.0 | 2.6 | 0.00 | 0.00 | 0.00 | 61 | 1011.6 |
| 20260509181944 | 81 | 156 | 3.5 | 7.0 | 0.00 | 0.00 | 0.00 | 61 | 1011.8 |
| 20260509181442 | 82 | 214 | 4.3 | 5.2 | 0.00 | 0.00 | 0.00 | 63 | 1011.6 |
| 20260509180939 | 81 | 42 | 0.9 | 3.5 | 0.00 | 0.00 | 0.00 | 61 | 1011.7 |
| 20260509180434 | 82 | 180 | 1.7 | 2.6 | 0.00 | 0.00 | 0.00 | 61 | 1011.8 |
| 20260509175931 | 81 | 297 | 1.7 | 3.5 | 0.00 | 0.00 | 0.00 | 59 | 1011.9 |
| 20260509175427 | 80 | 271 | 2.6 | 6.1 | 0.00 | 0.00 | 0.00 | 63 | 1011.9 |
| 20260509174923 | 82 | 9 | 3.5 | 5.2 | 0.00 | 0.00 | 0.00 | 63 | 1011.8 |
| 20260509174419 | 81 | 87 | 0.9 | 2.6 | 0.00 | 0.00 | 0.00 | 62 | 1011.9 |
| 20260509173915 | 79 | 289 | 2.6 | 4.3 | 0.00 | 0.00 | 0.00 | 63 | 1011.8 |
| 20260509173410 | 80 | 314 | 3.5 | 5.2 | 0.00 | 0.00 | 0.00 | 63 | 1012.0 |
| 20260509172906 | 79 | 27 | 1.7 | 2.6 | 0.00 | 0.00 | 0.00 | 66 | 1011.9 |
| 20260509172403 | 80 | 359 | 2.6 | 3.5 | 0.00 | 0.00 | 0.00 | 65 | 1011.9 |
| 20260509171858 | 79 | 333 | 1.7 | 5.2 | 0.00 | 0.00 | 0.00 | 66 | 1012.1 |
| 20260509171354 | 78 | 6 | 2.6 | 5.2 | 0.00 | 0.00 | 0.00 | 66 | 1012.2 |
| 20260509170846 | 79 | 157 | 2.6 | 3.5 | 0.00 | 0.00 | 0.00 | 68 | 1012.1 |
| 20260509170342 | 78 | 142 | 0.0 | 3.5 | 0.00 | 0.00 | 0.00 | 68 | 1012.3 |
| 20260509165841 | 79 | 330 | 2.6 | 4.3 | 0.00 | 0.00 | 0.00 | 65 | 1011.9 |
| 20260509165331 | 80 | 99 | 0.9 | 3.5 | 0.00 | 0.00 | 0.00 | 63 | 1012.3 |
| 20260509164827 | 79 | 263 | 0.0 | 5.2 | 0.00 | 0.00 | 0.00 | 63 | 1012.2 |
| 20260509164323 | 79 | 296 | 0.9 | 3.5 | 0.00 | 0.00 | 0.00 | 67 | 1012.1 |
| 20260509163820 | 77 | 45 | 0.9 | 9.6 | 0.00 | 0.00 | 0.00 | 68 | 1012.1 |
| 20260509163316 | 78 | 334 | 1.7 | 5.2 | 0.00 | 0.00 | 0.00 | 68 | 1011.9 |
| 20260509162816 | 77 | 318 | 2.6 | 7.0 | 0.00 | 0.00 | 0.00 | 68 | 1011.8 |
| 20260509162309 | 77 | 25 | 4.3 | 9.6 | 0.00 | 0.00 | 0.00 | 69 | 1012.0 |
| 20260509161805 | 78 | 343 | 2.6 | 4.3 | 0.00 | 0.00 | 0.00 | 69 | 1012.0 |
| 20260509161301 | 76 | 10 | 4.3 | 4.3 | 0.00 | 0.00 | 0.00 | 70 | 1011.8 |
| 20260509160756 | 75 | 268 | 3.5 | 5.2 | 0.00 | 0.00 | 0.00 | 71 | 1012.0 |
| 20260509160247 | 77 | 340 | 1.7 | 1.7 | 0.00 | 0.00 | 0.00 | 72 | 1011.8 |
| 20260509155742 | 75 | 285 | 2.6 | 7.0 | 0.00 | 0.00 | 0.00 | 73 | 1011.9 |
| 20260509155239 | 75 | 21 | 1.7 | 6.1 | 0.00 | 0.00 | 0.00 | 73 | 1012.0 |
| 20260509154735 | 76 | 294 | 1.7 | 5.2 | 0.00 | 0.00 | 0.00 | 71 | 1012.2 |
| 20260509154227 | 75 | 336 | 0.9 | 2.6 | 0.00 | 0.00 | 0.00 | 72 | 1011.8 |
| 20260509153724 | 74 | 300 | 3.5 | 5.2 | 0.00 | 0.00 | 0.00 | 72 | 1011.8 |
| 20260509153219 | 74 | 342 | 2.6 | 7.8 | 0.00 | 0.00 | 0.00 | 73 | 1012.0 |
| 20260509152715 | 74 | 356 | 3.5 | 6.1 | 0.00 | 0.00 | 0.00 | 74 | 1011.8 |
| 20260509152212 | 74 | 306 | 0.0 | 5.2 | 0.00 | 0.00 | 0.00 | 73 | 1012.0 |
| 20260509151709 | 75 | 291 | 1.7 | 2.6 | 0.00 | 0.00 | 0.00 | 72 | 1012.0 |
| 20260509151206 | 74 | 119 | 0.0 | 2.6 | 0.00 | 0.00 | 0.00 | 75 | 1012.0 |
| 20260509150704 | 73 | 2 | 0.0 | 4.3 | 0.00 | 0.00 | 0.00 | 76 | 1012.0 |
| 20260509150157 | 72 | 289 | 1.7 | 2.6 | 0.00 | 0.00 | 0.00 | 75 | 1012.0 |
| 20260509145653 | 71 | 324 | 1.7 | 5.2 | 0.00 | 0.00 | 0.00 | 76 | 1012.0 |
| 20260509145148 | 74 | 303 | 0.9 | 2.6 | 0.00 | 0.00 | 0.00 | 74 | 1011.9 |
| 20260509144645 | 71 | 46 | 0.9 | 3.5 | 0.00 | 0.00 | 0.00 | 78 | 1011.9 |
| 20260509144142 | 71 | 9 | 1.7 | 4.3 | 0.00 | 0.00 | 0.00 | 78 | 1011.9 |
| 20260509143639 | 71 | 20 | 2.6 | 3.5 | 0.00 | 0.00 | 0.00 | 78 | 1012.2 |
| 20260509143137 | 71 | 246 | 0.0 | 2.6 | 0.00 | 0.00 | 0.00 | 81 | 1012.2 |
| 20260509142632 | 70 | 178 | 1.7 | 3.5 | 0.00 | 0.00 | 0.00 | 80 | 1012.3 |
| 20260509142129 | 69 | 353 | 0.0 | 2.6 | 0.00 | 0.00 | 0.00 | 81 | 1012.2 |
| 20260509141625 | 69 | 272 | 0.0 | 4.3 | 0.00 | 0.00 | 0.00 | 83 | 1012.2 |
| 20260509141121 | 69 | 320 | 0.9 | 3.5 | 0.00 | 0.00 | 0.00 | 82 | 1012.2 |
| 20260509140618 | 69 | 124 | 0.0 | 2.6 | 0.00 | 0.00 | 0.00 | 82 | 1012.5 |
| 20260509140116 | 68 | 23 | 0.9 | 2.6 | 0.00 | 0.00 | 0.00 | 82 | 1012.5 |
| 20260509135613 | 68 | 194 | 1.7 | 2.6 | 0.00 | 0.00 | 0.00 | 84 | 1012.3 |
| 20260509135112 | 67 | 44 | 0.0 | 2.6 | 0.00 | 0.00 | 0.00 | 85 | 1012.5 |
| 20260509134608 | 67 | 11 | 0.0 | 1.7 | 0.00 | 0.00 | 0.00 | 86 | 1012.4 |
| 20260509134105 | 66 | 307 | 0.0 | 1.7 | 0.00 | 0.00 | 0.00 | 87 | 1012.4 |
| 20260509133602 | 66 | 217 | 0.0 | 1.7 | 0.00 | 0.00 | 0.00 | 90 | 1012.4 |
| 20260509133100 | 66 | 296 | 0.9 | 1.7 | 0.00 | 0.00 | 0.00 | 88 | 1012.4 |
| 20260509132558 | 67 | 186 | 0.0 | 1.7 | 0.00 | 0.00 | 0.00 | 84 | 1012.4 |
| 20260509132056 | 66 | 31 | 0.0 | 1.7 | 0.00 | 0.00 | 0.00 | 87 | 1012.3 |
| 20260509131551 | 66 | 132 | 1.7 | 2.6 | 0.00 | 0.00 | 0.00 | 87 | 1012.4 |
| 20260509131049 | 64 | 126 | 1.7 | 3.5 | 0.00 | 0.00 | 0.00 | 91 | 1012.2 |
| 20260509130544 | 62 | 89 | 0.9 | 2.6 | 0.00 | 0.00 | 0.00 | 94 | 1012.2 |
| 20260509130041 | 62 | 173 | 1.7 | 3.5 | 0.00 | 0.00 | 0.00 | 93 | 1012.2 |
| 20260509125537 | 62 | 127 | 1.7 | 3.5 | 0.00 | 0.00 | 0.00 | 95 | 1012.5 |
| 20260509125034 | 61 | 94 | 0.0 | 2.6 | 0.00 | 0.00 | 0.00 | 98 | 1012.3 |
| 20260509124531 | 60 | 169 | 1.7 | 3.5 | 0.00 | 0.00 | 0.00 | 99 | 1012.1 |
| 20260509124028 | 59 | 150 | 3.5 | 4.3 | 0.00 | 0.00 | 0.00 | 99 | 1012.2 |
| 20260509123526 | 59 | 195 | 1.7 | 2.6 | 0.00 | 0.00 | 0.00 | 99 | 1012.1 |
| 20260509123022 | 58 | 135 | 0.0 | 1.7 | 0.00 | 0.00 | 0.00 | 99 | 1012.0 |
| 20260509122518 | 58 | 113 | 0.9 | 1.7 | 0.00 | 0.00 | 0.00 | 99 | 1011.9 |
| 20260509122015 | 57 | 126 | 0.0 | 1.7 | 0.00 | 0.00 | 0.00 | 99 | 1012.0 |
| 20260509121511 | 57 | 62 | 0.9 | 2.6 | 0.00 | 0.00 | 0.00 | 99 | 1011.9 |
| 20260509121009 | 57 | 35 | 1.7 | 2.6 | 0.00 | 0.00 | 0.00 | 99 | 1011.7 |
| 20260509120507 | 56 | 41 | 1.7 | 2.6 | 0.00 | 0.00 | 0.00 | 99 | 1011.8 |
| 20260509120005 | 56 | 104 | 0.9 | 1.7 | 0.00 | 0.00 | 0.00 | 99 | 1011.8 |
| 20260509115502 | 56 | 63 | 0.0 | 1.7 | 0.00 | 0.00 | 0.00 | 99 | 1012.0 |
| 20260509114959 | 55 | 124 | 0.0 | 0.9 | 0.00 | 0.00 | 0.00 | 99 | 1011.7 |
| 20260509114458 | 55 | 64 | 0.9 | 2.6 | 0.00 | 0.00 | 0.00 | 99 | 1011.7 |
| 20260509113957 | 55 | 59 | 1.7 | 2.6 | 0.00 | 0.00 | 0.00 | 99 | 1011.5 |
| 20260509113454 | 55 | 40 | 1.7 | 2.6 | 0.00 | 0.00 | 0.00 | 99 | 1011.5 |
| 20260509112950 | 55 | 69 | 0.9 | 0.9 | 0.00 | 0.00 | 0.00 | 99 | 1011.0 |
| 20260509112448 | 55 | 126 | 1.7 | 2.6 | 0.00 | 0.00 | 0.00 | 99 | 1011.5 |
| 20260509111944 | 55 | 155 | 1.7 | 2.6 | 0.00 | 0.00 | 0.00 | 99 | 1011.1 |
| 20260509111442 | 55 | 130 | 1.7 | 3.5 | 0.00 | 0.00 | 0.00 | 99 | 1011.1 |
| 20260509110939 | 55 | 120 | 1.7 | 2.6 | 0.00 | 0.00 | 0.00 | 99 | 1011.1 |
| 20260509110435 | 55 | 39 | 0.9 | 0.9 | 0.00 | 0.00 | 0.00 | 99 | 1010.8 |
| 20260509105933 | 55 | 157 | 0.0 | 1.7 | 0.00 | 0.00 | 0.00 | 99 | 1010.8 |
| 20260509105432 | 55 | 77 | 0.0 | 0.9 | 0.00 | 0.00 | 0.00 | 99 | 1010.6 |
| 20260509104928 | 55 | 85 | 1.7 | 1.7 | 0.00 | 0.00 | 0.00 | 99 | 1010.5 |
| 20260509104425 | 56 | 88 | 0.9 | 2.6 | 0.00 | 0.00 | 0.00 | 99 | 1010.5 |
| 20260509103922 | 56 | 65 | 2.6 | 3.5 | 0.00 | 0.00 | 0.00 | 99 | 1010.4 |
| 20260509103419 | 56 | 75 | 1.7 | 1.7 | 0.00 | 0.00 | 0.00 | 99 | 1010.4 |
| 20260509102918 | 56 | 94 | 0.9 | 1.7 | 0.00 | 0.00 | 0.00 | 99 | 1010.3 |
| 20260509102415 | 56 | 125 | 0.0 | 1.7 | 0.00 | 0.00 | 0.00 | 99 | 1010.2 |
| 20260509101911 | 56 | 42 | 0.9 | 1.7 | 0.00 | 0.00 | 0.00 | 99 | 1009.9 |
| 20260509101407 | 55 | 21 | 1.7 | 2.6 | 0.00 | 0.00 | 0.00 | 99 | 1010.2 |
| 20260509100905 | 56 | 119 | 0.0 | 1.7 | 0.00 | 0.00 | 0.00 | 99 | 1009.9 |
| 20260509100402 | 56 | 89 | 0.0 | 0.9 | 0.00 | 0.00 | 0.00 | 99 | 1009.9 |
| 20260509095858 | 56 | 59 | 0.0 | 1.7 | 0.00 | 0.00 | 0.00 | 99 | 1010.0 |
| 20260509095356 | 56 | 29 | 1.7 | 1.7 | 0.00 | 0.00 | 0.00 | 99 | 1009.9 |